Location: Aalen
(48.8330°N, 10.1000°E)
Time: 23:01:11
(UTC+01:00)

BlueWalker 3 - Pass Details

Date: 06 December 2022
Orbit: 499 x 517 km, 53.2° (Epoch: 04 February)

Event Time Altitude Azimuth Distance (km) Brightness Sun altitude
Rises 19:05:02 0° 295° (WNW) 2,627 6.5 -25.6°
Reaches altitude 10° 19:07:15 10° 294° (WNW) 1,735 5.4 -25.9°
Enters shadow 19:09:59 42° 282° (WNW) 733 3.1 -26.4°
